Weather History for MCMWTC BRIDGEPORT, CA, CA

Change the Weather History Date:

Monday, July 7, 2014

  Actual Average (KTVL) Record (KTVL)
Temperature  
Mean Temperature 64 °F 60 °F  
Max Temperature 80 °F 79 °F 88 °F (2014)
Min Temperature 48 °F 41 °F 27 °F (1979)
Degree Days  
Heating Degree Days 1 5  
Month to date heating degree days 41  
Since 1 June heating degree days 351  
Since 1 July heating degree days 41  
Cooling Degree Days 0 0  
Month to date cooling degree days 0  
Year to date cooling degree days 1  
Since 1 June cooling degree days 1  
Growing Degree Days 14 (Base 50)    
Moisture  
Dew Point 36 °F    
Average Humidity 36    
Maximum Humidity 56    
Minimum Humidity 15    
Precipitation  
Precipitation 0.00 in - 0.57 in (1957)
Month to date precipitation  
Year to date precipitation  
Sea Level Pressure  
Sea Level Pressure 29.95 in    
Wind  
Wind Speed 2 mph (North)    
Max Wind Speed 10 mph    
Max Gust Speed 23 mph    
T = Trace of Precipitation, MM = Missing Value Source: NWS Daily Summary

Daily Weather History Graph

Daily Weather History Graph

Search for Another Location

Airport:

Trip Planner

Search our weather history database for the weather conditions in past years. The results will help you decide how hot, cold, wet, or windy it might be!

Date:

Astronomy

Jul. 07, 2014 Rise Set
Actual Time 5:41 AM PDT 8:24 PM PDT
Civil Twilight 5:10 AM PDT 8:55 PM PDT
Nautical Twilight 4:30 AM PDT 9:34 PM PDT
Astronomical Twilight 3:46 AM PDT 10:18 PM PDT
Moon 3:34 PM PDT (7/7) 1:35 AM PDT (7/7)
Length of Visible Light 15h 45m
Length of Day
14h 43m
Waxing Gibbous, 73% of the Moon is Illuminated
Jul 7
Waxing Gibbous
Jul 12
Full
Jul 18
Last Quarter
Jul 26
New
Aug 3
First Quarter

Hourly Weather History & Observations

Time (PDT) Temp. Dew Point Humidity Pressure Visibility Wind Dir Wind Speed Gust Speed Precip Events Conditions
12:52 AM 55.0 °F 30.0 °F 38% 29.96 in - Calm Calm - N/A   Clear
1:52 AM 54.0 °F 30.0 °F 40% 29.96 in - Calm Calm - N/A   Clear
2:52 AM 52.0 °F 30.0 °F 43% 29.96 in - Calm Calm - N/A   Clear
3:52 AM 48.9 °F 32.0 °F 52% 29.96 in - Calm Calm - N/A   Clear
4:52 AM 48.9 °F 30.9 °F 50% 29.95 in - Calm Calm - N/A   Clear
5:52 AM 48.0 °F 30.9 °F 52% 29.98 in - Calm Calm - N/A   Clear
6:52 AM 51.1 °F 33.1 °F 50% 29.99 in - Calm Calm - N/A   Clear
7:52 AM 53.1 °F 35.1 °F 50% 29.99 in - Calm Calm - N/A   Partly Cloudy
8:52 AM 64.0 °F 36.0 °F 35% 29.96 in - Calm Calm - N/A   Partly Cloudy
9:52 AM 72.0 °F 37.0 °F 28% 29.93 in - Calm Calm - N/A   Partly Cloudy
10:52 AM 77.0 °F 33.1 °F 20% 29.92 in - SSW 3.5 mph - N/A   Partly Cloudy
11:52 AM 77.0 °F 30.0 °F 18% 29.93 in - Calm Calm - N/A   Partly Cloudy
12:52 PM 78.1 °F 32.0 °F 19% 29.93 in - Calm Calm - N/A   Mostly Cloudy
1:52 PM 80.1 °F 28.9 °F 15% 29.93 in - NNE 4.6 mph - N/A   Clear
2:52 PM 80.1 °F 34.0 °F 19% 29.94 in - ENE 10.4 mph 23.0 mph N/A   Scattered Clouds
3:52 PM 75.0 °F 37.9 °F 26% 29.97 in - Variable 4.6 mph - N/A   Overcast
4:52 PM 73.9 °F 43.0 °F 33% 29.96 in - WSW 4.6 mph - N/A   Overcast
5:52 PM 75.0 °F 39.9 °F 28% 29.94 in - North 5.8 mph - N/A   Overcast
6:52 PM 73.9 °F 41.0 °F 30% 29.93 in - NNE 5.8 mph - N/A   Partly Cloudy
7:52 PM 73.9 °F 42.1 °F 32% 29.93 in - ENE 6.9 mph - N/A   Overcast
8:52 PM 69.1 °F 44.1 °F 40% 29.91 in - NNW 6.9 mph - N/A   Overcast
9:52 PM 69.1 °F 45.0 °F 42% 29.93 in - NE 10.4 mph - N/A   Overcast
10:52 PM 64.9 °F 46.9 °F 52% 29.92 in - NNW 5.8 mph - 0.00 in   Overcast
11:52 PM 63.0 °F 46.9 °F 56% 29.91 in - North 3.5 mph - N/A   Mostly Cloudy